Location: Cambridge (historical)
(38.6883°N, 119.0140°W)
Time: 17:11:28
(UTC+00:00)

Cosmos 1400 Rocket - Pass Details

Date: 29 October 2020
Orbit: 521 x 568 km, 81.2° (Epoch: 23 November)

Event Time Altitude Azimuth Distance (km) Brightness Sun altitude
Rises 12:44:05 0° 351° (N) 2,689 6.2 -19.3°
Reaches altitude 10° 12:46:15 10° 352° (N) 1,787 5.3 -18.9°
Maximum altitude 12:50:11 86° 78° (ENE) 533 2.7 -18.1°
Drops below altitude 10° 12:54:03 10° 171° (S) 1,754 5.5 -17.4°
Sets 12:56:10 0° 172° (S) 2,634 6.5 -17.0°
